Kenai, AK

7:40 PM AKST on November 18, 2019 (GMT -0900)
Kenai Municipal

Weather History for PAEN - October, 2019

Change the Weather History Date:

Monday, October 21, 2019

  Actual Average Record
Temperature  
Mean Temperature 38 °F -  
Max Temperature 45 °F 38 °F 56 °F (1957)
Min Temperature 32 °F 26 °F 1 °F (1996)
Degree Days  
Heating Degree Days 26    
Moisture  
Dew Point 34 °F    
Average Humidity 89    
Maximum Humidity 96    
Minimum Humidity 71    
Precipitation  
Precipitation 0.02 in - - ()
Sea Level Pressure  
Sea Level Pressure 29.70 in    
Wind  
Wind Speed 4 mph (NE)    
Max Wind Speed 7 mph    
Max Gust Speed -    
Visibility 8 miles    
Events Fog , Rain    
Averages and records for this station are not official NWS values.
T = Trace of Precipitation, MM = Missing Value Source: NWS Daily Summary

Daily Weather History Graph

Daily Weather History Graph

Search for Another Location

Airport or City:

Astronomy

Oct. 21, 2019 Rise Set
Actual Time 9:01 AM AKDT 6:36 PM AKDT
Civil Twilight 8:17 AM AKDT 7:20 PM AKDT
Nautical Twilight 7:27 AM AKDT 8:09 PM AKDT
Astronomical Twilight 6:38 AM AKDT 8:58 PM AKDT
Moon No Moon Rise 5:26 PM AKDT (10/21)
Length of Visible Light 11h 03m
Length of Day
9h 35m
Waning Gibbous, 47% of the Moon is Illuminated
Oct 21
Waning Gibbous
Oct 27
New
Nov 4
First Quarter
Nov 12
Full
Nov 19
Last Quarter

Hourly Weather History & Observations

Time (AKDT) Temp. Windchill Dew Point Humidity Pressure Visibility Wind Dir Wind Speed Gust Speed Precip Events Conditions
1:53 AM 37.9 °F 32.7 °F 36.0 °F 93% 29.64 in 10.0 mi NE 6.9 mph - N/A   Overcast
2:49 AM 37.4 °F 34.9 °F 35.6 °F 93% 29.63 in 10.0 mi North 3.5 mph - N/A   Overcast
2:53 AM 37.0 °F 34.5 °F 36.0 °F 96% 29.64 in 10.0 mi North 3.5 mph - N/A   Overcast
3:53 AM 37.9 °F 34.4 °F 36.0 °F 93% 29.65 in 10.0 mi NE 4.6 mph - 0.01 in Rain Light Rain
4:53 AM 37.9 °F 35.5 °F 36.0 °F 93% 29.65 in 10.0 mi NE 3.5 mph - 0.01 in Rain Light Rain
5:53 AM 39.0 °F - 36.0 °F 89% 29.66 in 10.0 mi Calm Calm - 0.00 in   Overcast
6:53 AM 37.9 °F 35.5 °F 36.0 °F 93% 29.67 in 10.0 mi East 3.5 mph - N/A   Overcast
7:53 AM 37.0 °F 33.3 °F 35.1 °F 93% 29.67 in 10.0 mi ENE 4.6 mph - N/A   Overcast
8:53 AM 35.1 °F - 33.1 °F 92% 29.68 in 10.0 mi Calm Calm - N/A   Mostly Cloudy
9:53 AM 35.1 °F - 33.1 °F 92% 29.69 in 10.0 mi Calm Calm - N/A   Mostly Cloudy
10:53 AM 37.9 °F 35.5 °F 35.1 °F 89% 29.70 in 10.0 mi East 3.5 mph - N/A   Overcast
11:53 AM 41.0 °F 37.1 °F 37.0 °F 86% 29.70 in 10.0 mi NE 5.8 mph - N/A   Overcast
12:53 PM 42.1 °F 37.7 °F 37.9 °F 85% 29.71 in 10.0 mi NE 6.9 mph - N/A   Overcast
1:05 PM 42.1 °F 38.4 °F 37.0 °F 82% 29.70 in 10.0 mi NE 5.8 mph - N/A   Overcast
1:53 PM 43.0 °F 40.3 °F 39.0 °F 86% 29.71 in 10.0 mi ENE 4.6 mph - N/A   Overcast
2:53 PM 44.1 °F - 37.9 °F 79% 29.71 in 10.0 mi Calm Calm - N/A   Overcast
3:53 PM 44.1 °F - 36.0 °F 73% 29.71 in 10.0 mi Calm Calm - N/A   Mostly Cloudy
4:53 PM 45.0 °F 42.6 °F 36.0 °F 71% 29.71 in 10.0 mi ESE 4.6 mph - N/A   Mostly Cloudy
5:53 PM 43.0 °F - 37.0 °F 80% 29.71 in 10.0 mi Calm Calm - N/A   Overcast
6:53 PM 39.9 °F 37.8 °F 37.0 °F 89% 29.72 in 10.0 mi NE 3.5 mph - N/A   Overcast
7:53 PM 39.0 °F 34.8 °F 36.0 °F 89% 29.72 in 10.0 mi NE 5.8 mph - N/A   Overcast
8:53 PM 36.0 °F 33.3 °F 34.0 °F 93% 29.73 in 10.0 mi NE 3.5 mph - N/A   Mostly Cloudy
9:53 PM 34.0 °F 29.8 °F 32.0 °F 92% 29.73 in 10.0 mi NE 4.6 mph - N/A   Clear
10:08 PM 33.1 °F 28.7 °F 30.9 °F 92% 29.73 in 1.8 mi NNE 4.6 mph - N/A   Clear
10:43 PM 32.0 °F - 30.9 °F 96% 29.74 in 1.0 mi Calm Calm - N/A   Mist
10:51 PM 33.8 °F 30.8 °F 30.2 °F 87% 29.73 in 0.8 mi NNE 3.5 mph - N/A   Mist
10:53 PM 33.1 °F 30.0 °F 30.9 °F 92% 29.74 in 0.8 mi NNE 3.5 mph - N/A   Mist
11:05 PM 33.1 °F - 30.9 °F 92% 29.74 in 1.2 mi Calm Calm - N/A   Scattered Clouds
11:21 PM 32.0 °F 28.7 °F 30.9 °F 96% 29.74 in 0.5 mi NNE 3.5 mph - N/A Fog Fog
11:32 PM 32.0 °F 26.4 °F 30.0 °F 92% 29.74 in 0.8 mi NNE 5.8 mph - N/A   Mostly Cloudy
11:39 PM 32.0 °F 26.4 °F 30.0 °F 92% 29.74 in 1.2 mi NNE 5.8 mph - N/A   Scattered Clouds
11:53 PM 32.0 °F 26.4 °F 30.0 °F 92% 29.75 in 1.2 mi NNE 5.8 mph - N/A   Scattered Clouds